Flag for Norfolk Island Weather past 2 weeks in Kingston, Norfolk Island

Now
61 °F

Partly sunny.


Feels Like: 61 °F
Forecast: 57 / 61 °F
Wind: 12 mph from Southeast

Location: Norfolk Island Airport

Current Time: Jul 30, 2015 at 9:55:31 AM

Latest Report: Jul 30, 2015 at 9:00 AM


Visibility: N/A

Pressure: 30.30 "Hg

Humidity: 48%

Dew point: 41 °F

Location of KingstonLocation

Historic Weather in Kingston — Graph

°F

Kingston temperature yesterday

Maximum temperature yesterday: 63 °F (at 10:00 AM)
Minimum temperature yesterday: 57 °F (at 12:30 AM)
Average temperature yesterday: 60 °F

Past Weeks' High & Low Weather Summary

 TemperatureHumidityPressure
High68 °F (Jul 15, 11:30 AM)100% (Jul 17, 9:30 PM)30.51 "Hg (Jul 17, 9:30 PM)
Low54 °F (Jul 20, 6:00 AM)39% (Jul 19, 11:00 AM)29.83 "Hg (Jul 18, 12:00 AM)
Average61 °F72%30.20 "Hg
* Reported Jul 15 8:30 AM — Jul 30 8:30 AM, Kingston, Weather by CustomWeather, © 2015

Note: Actual official high and low records may vary slightly from our data, if they occured in-between our weather recording intervals... More about our weather records

Advertising

Kingston weather history for previous 24 hours

 ConditionsComfort  
Time TempWeatherWind HumidityBarometerVisibility
8:30 AM
Thu, Jul 30
61 °FSunny.10 mph52%30.30 "Hg10 mi
8:00 AM59 °FPartly sunny.12 mph51%30.30 "HgN/A
7:30 AM59 °FPartly sunny.13 mph51%30.27 "HgN/A
7:00 AM59 °FPartly sunny.13 mph55%30.27 "HgN/A
6:30 AM59 °FClear.13 mph63%30.27 "HgN/A
6:00 AM57 °FClear.12 mph63%30.27 "HgN/A
5:30 AM57 °FPassing clouds.14 mph72%30.27 "HgN/A
5:00 AM57 °FPassing clouds.10 mph67%30.24 "HgN/A
4:30 AM57 °FClear.8 mph67%30.27 "HgN/A
4:00 AM57 °FPassing clouds.12 mph72%30.27 "HgN/A
3:30 AM59 °FPartly cloudy.9 mph63%30.27 "HgN/A
3:00 AM59 °FMostly cloudy.10 mph55%30.27 "HgN/A
2:30 AM59 °FPassing clouds.9 mph51%30.27 "HgN/A
2:00 AM59 °FMostly cloudy.10 mph51%30.27 "HgN/A
1:30 AM59 °FPartly cloudy.12 mph51%30.30 "HgN/A
1:00 AM59 °FMostly cloudy.12 mph55%30.30 "HgN/A
12:30 AM59 °FPartly cloudy.14 mph55%30.27 "HgN/A
12:00 AM59 °FOvercast.10 mph59%30.27 "HgN/A
11:30 PM
Wed, Jul 29
59 °FPartly cloudy.8 mph68%30.27 "HgN/A
11:00 PM57 °FOvercast.9 mph77%30.27 "HgN/A
10:30 PM59 °FPartly cloudy.12 mph68%30.27 "HgN/A
10:00 PM59 °FMostly cloudy.9 mph72%30.27 "HgN/A
9:30 PM57 °FPartly cloudy.15 mph77%30.27 "HgN/A
9:00 PM59 °FClear.14 mph63%30.27 "HgN/A
8:30 PM57 °FPassing clouds.10 mph67%30.27 "HgN/A
8:00 PM59 °FPartly cloudy.13 mph63%30.27 "HgN/A
7:30 PM59 °FPartly cloudy.10 mph68%30.24 "HgN/A
6:30 PM57 °FOvercast.16 mph72%30.24 "HgN/A
6:00 PM59 °FSprinkles. Passing clouds.13 mph68%30.21 "HgN/A
5:30 PM59 °FScattered showers. Passing clouds.13 mph63%30.21 "HgN/A
5:00 PM61 °FScattered showers. Scattered clouds.12 mph55%30.21 "HgN/A
4:30 PM61 °FScattered clouds.10 mph59%30.21 "HgN/A
4:00 PM63 °FScattered showers. Scattered clouds.13 mph59%30.21 "HgN/A
3:30 PM61 °FPassing clouds.16 mph59%30.21 "HgN/A
3:00 PM61 °FPassing clouds.14 mph55%30.21 "HgN/A
2:30 PM63 °FPassing clouds.13 mph52%30.21 "HgN/A
2:00 PM61 °FPassing clouds.13 mph55%30.21 "HgN/A
1:30 PM63 °FSprinkles. Passing clouds.9 mph56%30.21 "HgN/A
1:00 PM61 °FMore clouds than sun.13 mph59%30.24 "HgN/A
12:30 PM59 °FSprinkles. Scattered clouds.17 mph63%30.24 "HgN/A
12:00 PM63 °FSprinkles. Passing clouds.10 mph59%30.24 "HgN/A
11:30 AM63 °FSprinkles. Passing clouds.13 mph56%30.27 "HgN/A
11:00 AM63 °FPassing clouds.14 mph56%30.27 "HgN/A
10:30 AM63 °FPassing clouds.13 mph52%30.27 "HgN/A
10:00 AM63 °FPassing clouds.13 mph59%30.27 "HgN/A
9:30 AM61 °FPassing clouds.14 mph55%30.27 "HgN/A
9:00 AM61 °FPassing clouds.13 mph59%30.27 "HgN/A
Weather by CustomWeather, © 2015

See weather overviewHow to use our weather pages